| time (UTC) | temp F | wind direction | speed MPH | gust MPH | rain 1hr in | rain 24hr in | rain mn in | humidity % | barometer mb |
| 20260903224334 | 93 | 148 | 6.0 | 17.0 | 0.00 | 0.00 | 0.00 | 67 | 1011.1 |
| 20260903223322 | 93 | 293 | 6.0 | 16.0 | 0.00 | 0.00 | 0.00 | 65 | 1011.0 |
| 20260903222333 | 93 | 96 | 7.0 | 16.0 | 0.00 | 0.00 | 0.00 | 64 | 1011.1 |
| 20260903221324 | 94 | 84 | 9.0 | 17.0 | 0.00 | 0.00 | 0.00 | 64 | 1011.1 |
| 20260903220334 | 94 | 98 | 6.0 | 15.0 | 0.00 | 0.00 | 0.00 | 63 | 1011.1 |
| 20260903215323 | 94 | 113 | 6.0 | 14.0 | 0.00 | 0.00 | 0.00 | 63 | 1011.1 |
| 20260903214334 | 94 | 70 | 6.0 | 15.0 | 0.00 | 0.00 | 0.00 | 62 | 1010.9 |
| 20260903213345 | 94 | 89 | 5.0 | 12.0 | 0.00 | 0.00 | 0.00 | 62 | 1011.1 |
| 20260903212335 | 94 | 80 | 7.0 | 12.0 | 0.00 | 0.00 | 0.00 | 62 | 1011.2 |
| 20260903211345 | 94 | 51 | 5.0 | 11.0 | 0.00 | 0.00 | 0.00 | 62 | 1011.3 |
| 20260903210326 | 95 | 70 | 4.0 | 15.0 | 0.00 | 0.00 | 0.00 | 62 | 1011.4 |
| 20260903205346 | 95 | 131 | 5.0 | 13.0 | 0.00 | 0.00 | 0.00 | 61 | 1011.4 |
| 20260903204328 | 96 | 108 | 5.0 | 11.0 | 0.00 | 0.00 | 0.00 | 60 | 1011.5 |
| 20260903203339 | 95 | 122 | 6.0 | 12.0 | 0.00 | 0.00 | 0.00 | 60 | 1011.6 |
| 20260903202330 | 95 | 139 | 6.0 | 15.0 | 0.00 | 0.00 | 0.00 | 62 | 1012.1 |
| 20260903201322 | 95 | 88 | 6.0 | 8.0 | 0.00 | 0.00 | 0.00 | 59 | 1012.1 |
| 20260903200333 | 95 | 78 | 5.0 | 12.0 | 0.00 | 0.00 | 0.00 | 59 | 1012.3 |
| 20260903195325 | 94 | 77 | 2.0 | 7.0 | 0.00 | 0.00 | 0.00 | 62 | 1012.3 |
| 20260903194335 | 93 | 91 | 4.0 | 8.0 | 0.00 | 0.00 | 0.00 | 64 | 1012.5 |
| 20260903193327 | 94 | 96 | 2.0 | 8.0 | 0.00 | 0.00 | 0.00 | 61 | 1012.6 |
| 20260903192337 | 94 | 131 | 1.0 | 7.0 | 0.00 | 0.00 | 0.00 | 63 | 1012.8 |
| 20260903191326 | 93 | 125 | 2.0 | 9.0 | 0.00 | 0.00 | 0.00 | 63 | 1012.9 |
| 20260903190332 | 92 | 79 | 3.0 | 9.0 | 0.00 | 0.00 | 0.00 | 63 | 1013.1 |
| 20260903185340 | 93 | 124 | 2.0 | 7.0 | 0.00 | 0.00 | 0.00 | 64 | 1013.2 |
| 20260903184328 | 92 | 122 | 3.0 | 9.0 | 0.00 | 0.00 | 0.00 | 65 | 1013.3 |
| 20260903183339 | 92 | 127 | 2.0 | 7.0 | 0.00 | 0.00 | 0.00 | 65 | 1013.5 |
| 20260903182329 | 92 | 105 | 2.0 | 7.0 | 0.00 | 0.00 | 0.00 | 65 | 1013.7 |
| 20260903181339 | 92 | 108 | 2.0 | 8.0 | 0.00 | 0.00 | 0.00 | 66 | 1013.8 |
| 20260903180322 | 91 | 84 | 4.0 | 9.0 | 0.00 | 0.00 | 0.00 | 66 | 1013.9 |
| 20260903175341 | 90 | 165 | 3.0 | 7.0 | 0.00 | 0.00 | 0.00 | 67 | 1014.2 |
| 20260903174322 | 90 | 108 | 2.0 | 6.0 | 0.00 | 0.00 | 0.00 | 69 | 1014.3 |
| 20260903173334 | 89 | 86 | 3.0 | 8.0 | 0.00 | 0.00 | 0.00 | 70 | 1014.4 |
| 20260903172324 | 89 | 124 | 2.0 | 6.0 | 0.00 | 0.00 | 0.00 | 69 | 1014.5 |
| 20260903171332 | 89 | 105 | 2.0 | 4.0 | 0.00 | 0.00 | 0.00 | 70 | 1014.7 |
| 20260903170341 | 89 | 120 | 0.0 | 4.0 | 0.00 | 0.00 | 0.00 | 71 | 1014.7 |
| 20260903165332 | 89 | 136 | 1.0 | 6.0 | 0.00 | 0.00 | 0.00 | 70 | 1014.5 |
| 20260903164322 | 89 | 184 | 2.0 | 6.0 | 0.00 | 0.00 | 0.00 | 71 | 1014.5 |
| 20260903163333 | 89 | 230 | 2.0 | 6.0 | 0.00 | 0.00 | 0.00 | 71 | 1014.4 |
| 20260903162321 | 89 | 208 | 2.0 | 9.0 | 0.00 | 0.00 | 0.00 | 72 | 1014.4 |
| 20260903161332 | 88 | 217 | 3.0 | 8.0 | 0.00 | 0.00 | 0.00 | 73 | 1014.3 |
| 20260903160322 | 88 | 202 | 2.0 | 8.0 | 0.00 | 0.00 | 0.00 | 73 | 1014.2 |
| 20260903155333 | 87 | 214 | 4.0 | 9.0 | 0.00 | 0.00 | 0.00 | 74 | 1014.2 |
| 20260903154324 | 87 | 119 | 4.0 | 9.0 | 0.00 | 0.00 | 0.00 | 75 | 1014.2 |
| 20260903153331 | 86 | 175 | 1.0 | 11.0 | 0.00 | 0.00 | 0.00 | 75 | 1014.1 |
| 20260903152322 | 86 | 225 | 5.0 | 11.0 | 0.00 | 0.00 | 0.00 | 76 | 1014.1 |
| 20260903151332 | 86 | 229 | 5.0 | 11.0 | 0.00 | 0.00 | 0.00 | 78 | 1014.0 |
| 20260903150324 | 85 | 160 | 5.0 | 10.0 | 0.00 | 0.00 | 0.00 | 79 | 1014.1 |
| 20260903145329 | 85 | 219 | 4.0 | 11.0 | 0.00 | 0.00 | 0.00 | 80 | 1014.0 |
| 20260903144339 | 84 | 202 | 4.0 | 11.0 | 0.00 | 0.00 | 0.00 | 82 | 1014.1 |
| 20260903143321 | 83 | 187 | 3.0 | 10.0 | 0.00 | 0.00 | 0.00 | 83 | 1014.2 |
| 20260903142337 | 83 | 193 | 4.0 | 10.0 | 0.00 | 0.00 | 0.00 | 84 | 1014.1 |
| 20260903141348 | 83 | 205 | 2.0 | 12.0 | 0.00 | 0.00 | 0.00 | 85 | 1014.1 |
| 20260903140327 | 82 | 219 | 2.0 | 12.0 | 0.00 | 0.00 | 0.00 | 86 | 1014.2 |
| 20260903135347 | 82 | 219 | 5.0 | 11.0 | 0.00 | 0.00 | 0.00 | 87 | 1014.2 |
| 20260903134329 | 81 | 206 | 3.0 | 9.0 | 0.00 | 0.00 | 0.00 | 87 | 1014.2 |
| 20260903133339 | 81 | 138 | 1.0 | 13.0 | 0.00 | 0.00 | 0.00 | 88 | 1014.1 |
| 20260903132329 | 81 | 221 | 4.0 | 11.0 | 0.00 | 0.00 | 0.00 | 89 | 1014.1 |
| 20260903131321 | 80 | 155 | 4.0 | 11.0 | 0.00 | 0.00 | 0.00 | 89 | 1014.1 |
| 20260903130332 | 80 | 143 | 4.0 | 8.0 | 0.00 | 0.00 | 0.00 | 90 | 1014.1 |
| 20260903125337 | 80 | 167 | 5.0 | 10.0 | 0.00 | 0.00 | 0.00 | 90 | 1014.0 |
| 20260903124328 | 80 | 157 | 4.0 | 10.0 | 0.00 | 0.00 | 0.00 | 91 | 1013.9 |
| 20260903123332 | 80 | 183 | 4.0 | 11.0 | 0.00 | 0.00 | 0.00 | 91 | 1013.8 |
| 20260903122323 | 80 | 223 | 2.0 | 8.0 | 0.00 | 0.00 | 0.00 | 91 | 1013.7 |
| 20260903121334 | 80 | 261 | 2.0 | 8.0 | 0.00 | 0.00 | 0.00 | 91 | 1013.6 |
| 20260903120325 | 80 | 141 | 1.0 | 7.0 | 0.00 | 0.00 | 0.00 | 91 | 1013.5 |
| 20260903115336 | 80 | 162 | 4.0 | 11.0 | 0.00 | 0.00 | 0.00 | 91 | 1013.4 |
| 20260903114326 | 80 | 146 | 4.0 | 10.0 | 0.00 | 0.00 | 0.00 | 91 | 1013.4 |
| 20260903113336 | 80 | 139 | 1.0 | 9.0 | 0.00 | 0.00 | 0.00 | 91 | 1013.4 |
| 20260903112327 | 80 | 153 | 4.0 | 9.0 | 0.00 | 0.00 | 0.00 | 91 | 1013.5 |
| 20260903111337 | 79 | 120 | 4.0 | 8.0 | 0.00 | 0.00 | 0.00 | 91 | 1013.5 |
| 20260903110326 | 79 | 191 | 2.0 | 6.0 | 0.00 | 0.00 | 0.00 | 91 | 1013.5 |
| 20260903105332 | 79 | 158 | 4.0 | 9.0 | 0.00 | 0.00 | 0.00 | 91 | 1013.3 |
| 20260903104341 | 79 | 181 | 2.0 | 7.0 | 0.00 | 0.00 | 0.00 | 91 | 1013.1 |
| 20260903103323 | 79 | 179 | 2.0 | 9.0 | 0.00 | 0.00 | 0.00 | 91 | 1013.0 |
| 20260903102343 | 79 | 142 | 2.0 | 9.0 | 0.00 | 0.00 | 0.00 | 91 | 1013.1 |
| 20260903101324 | 79 | 158 | 2.0 | 7.0 | 0.00 | 0.00 | 0.00 | 91 | 1013.0 |
| 20260903100335 | 79 | 190 | 2.0 | 7.0 | 0.00 | 0.00 | 0.00 | 90 | 1013.1 |
| 20260903095325 | 80 | 176 | 2.0 | 8.0 | 0.00 | 0.00 | 0.00 | 90 | 1013.0 |
| 20260903094336 | 80 | 155 | 3.0 | 8.0 | 0.00 | 0.00 | 0.00 | 90 | 1013.1 |
| 20260903093327 | 80 | 172 | 3.0 | 7.0 | 0.00 | 0.00 | 0.00 | 90 | 1013.2 |
| 20260903092335 | 80 | 162 | 1.0 | 8.0 | 0.00 | 0.00 | 0.00 | 90 | 1013.2 |
| 20260903091325 | 80 | 158 | 2.0 | 5.0 | 0.00 | 0.00 | 0.00 | 89 | 1013.5 |
| 20260903090336 | 80 | 186 | 4.0 | 8.0 | 0.00 | 0.00 | 0.00 | 89 | 1013.3 |
| 20260903085327 | 80 | 214 | 2.0 | 9.0 | 0.00 | 0.00 | 0.00 | 88 | 1013.3 |
| 20260903084338 | 80 | 184 | 3.0 | 9.0 | 0.00 | 0.00 | 0.00 | 88 | 1013.4 |
| 20260903083322 | 80 | 169 | 4.0 | 10.0 | 0.00 | 0.00 | 0.00 | 87 | 1013.3 |
| 20260903082334 | 80 | 165 | 3.0 | 8.0 | 0.00 | 0.00 | 0.00 | 87 | 1013.5 |
| 20260903081324 | 80 | 164 | 4.0 | 12.0 | 0.00 | 0.00 | 0.00 | 86 | 1013.4 |
| 20260903080335 | 80 | 158 | 1.0 | 6.0 | 0.00 | 0.00 | 0.00 | 85 | 1013.3 |
| 20260903075323 | 81 | 259 | 2.0 | 11.0 | 0.00 | 0.00 | 0.00 | 85 | 1013.4 |
| 20260903074333 | 80 | 125 | 1.0 | 7.0 | 0.00 | 0.00 | 0.00 | 84 | 1013.5 |
| 20260903073325 | 80 | 132 | 2.0 | 8.0 | 0.00 | 0.00 | 0.00 | 84 | 1013.4 |
| 20260903072324 | 80 | 165 | 3.0 | 5.0 | 0.00 | 0.00 | 0.00 | 84 | 1013.5 |
| 20260903071334 | 80 | 154 | 1.0 | 5.0 | 0.00 | 0.00 | 0.00 | 83 | 1013.6 |
| 20260903070322 | 80 | 134 | 2.0 | 6.0 | 0.00 | 0.00 | 0.00 | 83 | 1013.8 |
| 20260903065329 | 80 | 169 | 2.0 | 6.0 | 0.00 | 0.00 | 0.00 | 84 | 1013.8 |
| 20260903064340 | 80 | 146 | 1.0 | 7.0 | 0.00 | 0.00 | 0.00 | 84 | 1013.8 |
| 20260903063322 | 80 | 148 | 1.0 | 5.0 | 0.00 | 0.00 | 0.00 | 84 | 1013.9 |
| 20260903062343 | 80 | 155 | 2.0 | 6.0 | 0.00 | 0.00 | 0.00 | 84 | 1014.1 |
| 20260903061325 | 80 | 135 | 1.0 | 8.0 | 0.00 | 0.00 | 0.00 | 84 | 1014.0 |
| 20260903060346 | 80 | 147 | 4.0 | 8.0 | 0.00 | 0.00 | 0.00 | 84 | 1014.0 |
| 20260903055328 | 80 | 138 | 2.0 | 7.0 | 0.00 | 0.00 | 0.00 | 84 | 1014.0 |
| 20260903054339 | 81 | 133 | 1.0 | 7.0 | 0.00 | 0.00 | 0.00 | 84 | 1014.1 |
| 20260903053331 | 81 | 127 | 1.0 | 9.0 | 0.00 | 0.00 | 0.00 | 83 | 1014.1 |
| 20260903052322 | 81 | 148 | 3.0 | 8.0 | 0.00 | 0.00 | 0.00 | 82 | 1014.1 |
| 20260903051333 | 81 | 167 | 2.0 | 11.0 | 0.00 | 0.00 | 0.00 | 81 | 1014.0 |
| 20260903050323 | 82 | 158 | 5.0 | 10.0 | 0.00 | 0.00 | 0.00 | 79 | 1014.0 |
| 20260903045334 | 82 | 105 | 2.0 | 6.0 | 0.00 | 0.00 | 0.00 | 79 | 1013.9 |
| 20260903044326 | 82 | 125 | 3.0 | 8.0 | 0.00 | 0.00 | 0.00 | 77 | 1014.0 |
| 20260903043337 | 83 | 81 | 2.0 | 7.0 | 0.00 | 0.00 | 0.00 | 76 | 1013.9 |
| 20260903042327 | 83 | 128 | 2.0 | 5.0 | 0.00 | 0.00 | 0.00 | 75 | 1013.8 |
| 20260903041338 | 83 | 110 | 2.0 | 6.0 | 0.00 | 0.00 | 0.00 | 75 | 1013.9 |
| 20260903040329 | 84 | 77 | 4.0 | 10.0 | 0.00 | 0.00 | 0.00 | 74 | 1014.0 |
| 20260903035339 | 84 | 74 | 3.0 | 9.0 | 0.00 | 0.00 | 0.00 | 74 | 1014.1 |
| 20260903034332 | 84 | 75 | 4.0 | 10.0 | 0.00 | 0.00 | 0.00 | 75 | 1014.1 |
| 20260903033342 | 85 | 109 | 6.0 | 10.0 | 0.00 | 0.00 | 0.00 | 74 | 1014.0 |
| 20260903032324 | 85 | 88 | 7.0 | 12.0 | 0.00 | 0.00 | 0.00 | 72 | 1013.9 |
| 20260903031342 | 86 | 72 | 3.0 | 6.0 | 0.00 | 0.00 | 0.00 | 68 | 1013.4 |
| 20260903030343 | 87 | 69 | 1.0 | 8.0 | 0.00 | 0.00 | 0.00 | 66 | 1013.2 |
| 20260903025325 | 87 | 71 | 6.0 | 10.0 | 0.00 | 0.00 | 0.00 | 65 | 1013.1 |
| 20260903024341 | 87 | 103 | 7.0 | 12.0 | 0.00 | 0.00 | 0.00 | 64 | 1013.2 |
| 20260903023322 | 88 | 97 | 1.0 | 2.0 | 0.00 | 0.00 | 0.00 | 63 | 1012.7 |
| 20260903022334 | 88 | 141 | 0.0 | 1.0 | 0.00 | 0.00 | 0.00 | 63 | 1012.4 |
| 20260903021325 | 88 | 141 | 0.0 | 1.0 | 0.00 | 0.00 | 0.00 | 63 | 1012.2 |
| 20260903020337 | 88 | 145 | 0.0 | 2.0 | 0.00 | 0.00 | 0.00 | 63 | 1012.1 |
| 20260903015327 | 89 | 145 | 0.0 | 1.0 | 0.00 | 0.00 | 0.00 | 61 | 1012.0 |
| 20260903014339 | 89 | 145 | 0.0 | 1.0 | 0.00 | 0.00 | 0.00 | 61 | 1012.0 |
| 20260903013330 | 89 | 145 | 0.0 | 1.0 | 0.00 | 0.00 | 0.00 | 62 | 1012.0 |
| 20260903012321 | 90 | 145 | 0.0 | 1.0 | 0.00 | 0.00 | 0.00 | 60 | 1011.9 |
| 20260903011332 | 91 | 145 | 0.0 | 3.0 | 0.00 | 0.00 | 0.00 | 59 | 1011.9 |
| 20260903010322 | 92 | 140 | 0.0 | 2.0 | 0.00 | 0.00 | 0.00 | 57 | 1011.8 |
| 20260903005332 | 92 | 52 | 0.0 | 0.0 | 0.00 | 0.00 | 0.00 | 57 | 1011.7 |
| 20260903004323 | 93 | 52 | 0.0 | 1.0 | 0.00 | 0.00 | 0.00 | 56 | 1011.8 |
| 20260903003334 | 93 | 52 | 1.0 | 2.0 | 0.00 | 0.00 | 0.00 | 57 | 1011.8 |
| 20260903002338 | 95 | 267 | 0.0 | 0.0 | 0.00 | 0.00 | 0.00 | 54 | 1011.7 |
| 20260903001329 | 97 | 266 | 0.0 | 1.0 | 0.00 | 0.00 | 0.00 | 50 | 1011.7 |
| 20260903000340 | 96 | 267 | 0.0 | 1.0 | 0.00 | 0.00 | 0.00 | 50 | 1011.8 |
| 20260902235322 | 98 | 265 | 0.0 | 1.0 | 0.00 | 0.00 | 0.00 | 48 | 1011.7 |
| 20260902234342 | 97 | 255 | 1.0 | 4.0 | 0.00 | 0.00 | 0.00 | 49 | 1011.7 |
| 20260902233324 | 96 | 122 | 1.0 | 3.0 | 0.00 | 0.00 | 0.00 | 50 | 1011.8 |
| 20260902232345 | 96 | 22 | 1.0 | 4.0 | 0.00 | 0.00 | 0.00 | 49 | 1011.8 |
| 20260902231326 | 96 | 148 | 2.0 | 9.0 | 0.00 | 0.00 | 0.00 | 50 | 1011.9 |
| 20260902230337 | 96 | 221 | 5.0 | 15.0 | 0.00 | 0.00 | 0.00 | 53 | 1011.7 |
| 20260902225329 | 100 | 192 | 2.0 | 6.0 | 0.00 | 0.00 | 0.00 | 46 | 1011.7 |